This demonstration page uses our WeatherBlox Daily Observations layout. Learn more.

Left ArrowRight Arrow

Hourly Observations for November 17, 2021

Temp ( °F °C ) Dew Point ( °F °C ) Humidity (%) Winds ( mph kmh ) Pressure ( in mb ) Visibility ( mi km ) Precip ( " mm )
12:15 am 00:15 Clear 45 7 18 -8 34 34 N 16 26 29.95 1014 10 16 0.00 0.00
12:35 am 00:35 Clear 44 6.7 18 -8 35 35 N 14 22 29.96 1015 10 16 0.00 0.00
12:55 am 00:55 Clear 44 6.5 18 -7.7 36 36 N 17 28 29.98 1015 10 16 0.00 0.00
1:15 am 01:15 Clear 43 6.3 18 -7.9 36 36 N 14 22 29.98 1015 10 16 0.00 0.00
1:35 am 01:35 Clear 43 6 18 -7.8 37 37 N 16 26 30.00 1016 10 16 0.00 0.00
1:55 am 01:55 Clear 42 5.5 19 -7.5 39 39 N 15 24 30.01 1016 10 16 0.00 0.00
2:15 am 02:15 Clear 42 5.5 18 -7.6 39 39 N 15 24 30.02 1017 10 16 0.00 0.00
2:35 am 02:35 Clear 42 5.6 18 -7.8 38 38 N 15 24 30.03 1017 10 16 0.00 0.00
2:55 am 02:55 Clear 42 5.6 17 -8.2 37 37 N 16 26 30.03 1017 10 16 0.00 0.00
3:15 am 03:15 Clear 42 5.6 16 -9 34 34 N 16 26 30.04 1017 10 16 0.00 0.00
3:35 am 03:35 Clear 42 5.7 14 -10 32 32 N 17 28 30.04 1017 10 16 0.00 0.00
3:55 am 03:55 Clear 42 5.6 13 -10.6 30 30 N 17 28 30.06 1018 10 16 0.00 0.00
4:15 am 04:15 Clear 42 5.5 13 -10.4 31 31 N 16 26 30.07 1018 10 16 0.00 0.00
4:35 am 04:35 Clear 41 5.2 13 -10.4 32 32 N 16 26 30.09 1019 10 16 0.00 0.00
4:55 am 04:55 Clear 41 5 13 -10.6 32 32 N 15 24 30.10 1019 10 16 0.00 0.00
5:15 am 05:15 Clear 41 4.8 13 -10.6 32 32 N 14 22 30.12 1020 10 16 0.00 0.00
5:35 am 05:35 Clear 40 4.5 14 -10.1 34 34 N 12 19 30.14 1021 10 16 0.00 0.00
5:55 am 05:55 Partly Cloudy 40 4.6 13 -10.6 33 33 NNW 15 24 30.16 1021 10 16 0.00 0.00
6:15 am 06:15 Partly Cloudy 40 4.3 14 -10.2 34 34 N 13 20 30.17 1022 10 16 0.00 0.00
6:35 am 06:35 Clear 39 4 13 -10.3 35 35 NNW 13 20 30.18 1022 10 16 0.00 0.00
6:55 am 06:55 Partly Cloudy 38 3.3 13 -10.5 36 36 NNW 10 17 30.19 1023 10 16 0.00 0.00
7:15 am 07:15 Partly Cloudy 35 1.7 14 -9.9 42 42 NNW 8 13 30.22 1023 10 16 0.00 0.00
7:35 am 07:35 Sunny 32 0 15 -9.6 49 49 NNW 8 13 30.24 1024 10 16 0.00 0.00
7:55 am 07:55 Partly Cloudy 31 -0.6 16 -9 53 53 NW 9 15 30.25 1024 10 16 0.00 0.00
8:15 am 08:15 Mostly Cloudy 34 1.3 17 -8.2 50 50 WNW 6 9 30.25 1025 10 16 0.00 0.00
8:35 am 08:35 Cloudy 40 4.3 16 -8.9 38 38 NW 10 17 30.23 1024 10 16 0.00 0.00
8:55 am 08:55 Mostly Cloudy 39 4 15 -9.2 38 38 NW 9 15 30.25 1024 10 16 0.00 0.00
9:15 am 09:15 Partly Cloudy 39 4.1 15 -9.3 37 37 WNW 10 17 30.26 1025 10 16 0.00 0.00
11:35 am 11:35 Sunny 44 6.4 11 -11.4 27 27 NNW 17 28 30.27 1025 10 16 0.00 0.00
11:55 am 11:55 Sunny 44 6.8 11 -11.6 26 26 NNW 16 26 30.25 1024 10 16 0.00 0.00
12:15 pm 12:15 Sunny 46 7.6 10 -12.5 23 23 NNW 18 30 30.23 1024 10 16 0.00 0.00
12:35 pm 12:35 Sunny 47 8.2 9 -12.6 22 22 NW 20 31 30.23 1024 10 16 0.00 0.00
12:55 pm 12:55 Sunny 46 7.7 10 -12.3 23 23 NW 17 28 30.22 1023 10 16 0.00 0.00
1:15 pm 13:15 Sunny 47 8.1 8 -13.1 21 21 NW 23 37 30.22 1023 10 16 0.00 0.00
1:35 pm 13:35 Sunny 47 8.5 9 -12.6 21 21 NW 20 31 30.22 1023 10 16 0.00 0.00
1:55 pm 13:55 Sunny 48 8.8 9 -12.7 21 21 NW 23 37 30.21 1023 10 16 0.00 0.00
2:15 pm 14:15 Sunny 47 8.6 9 -12.7 21 21 NW 23 37 30.21 1023 10 16 0.00 0.00
2:35 pm 14:35 Sunny 47 8.5 9 -12.9 21 21 NW 21 33 30.22 1023 10 16 0.00 0.00
2:55 pm 14:55 Sunny 47 8.2 8 -13.3 20 20 NW 24 39 30.22 1023 10 16 0.00 0.00
3:15 pm 15:15 Sunny 47 8.3 7 -13.9 19 19 NW 28 44 30.23 1024 10 16 0.00 0.00
3:35 pm 15:35 Sunny 46 8 6 -14.3 19 19 NW 23 37 30.23 1024 10 16 0.00 0.00
3:55 pm 15:55 Sunny 46 7.7 5 -15 18 18 NW 25 41 30.24 1024 10 16 0.00 0.00
4:15 pm 16:15 Sunny 45 7.2 6 -14.6 20 20 NW 24 39 30.27 1025 10 16 0.00 0.00
4:35 pm 16:35 Sunny 44 6.6 7 -14.1 21 21 NW 22 35 30.27 1025 10 16 0.00 0.00
4:55 pm 16:55 Sunny 42 5.6 9 -12.8 25 25 NNW 16 26 30.29 1026 10 16 0.00 0.00
5:15 pm 17:15 Sunny 40 4.5 9 -12.7 28 28 NNW 13 20 30.31 1027 10 16 0.00 0.00
5:35 pm 17:35 Clear 36 2.3 10 -12 34 34 NW 9 15 30.33 1027 10 16 0.00 0.00
5:55 pm 17:55 Clear 32 0 11 -11.7 41 41 NW 9 15 30.37 1028 10 16 0.00 0.00
6:15 pm 18:15 Clear 31 -0.7 10 -12.1 42 42 WNW 7 11 30.38 1029 10 16 0.00 0.00
6:35 pm 18:35 Clear 27 -2.8 12 -11 54 54 WNW 8 13 30.42 1030 10 16 0.00 0.00
6:55 pm 18:55 Clear 26 -3.3 12 -10.9 56 56 WNW 9 15 30.42 1030 10 16 0.00 0.00
7:15 pm 19:15 Clear 26 -3.5 12 -11 56 56 W 9 15 30.44 1031 10 16 0.00 0.00
7:35 pm 19:35 Clear 27 -2.8 12 -11 54 54 WNW 10 17 30.45 1031 10 16 0.00 0.00
7:55 pm 19:55 Clear 29 -1.8 11 -11.4 48 48 NW 9 15 30.45 1031 10 16 0.00 0.00
8:15 pm 20:15 Clear 28 -2.3 11 -11.6 49 49 NW 7 11 30.46 1032 10 16 0.00 0.00
8:35 pm 20:35 Clear 25 -3.9 12 -11.3 57 57 WNW 6 9 30.48 1032 10 16 0.00 0.00
8:55 pm 20:55 Clear 26 -3.6 12 -11.2 56 56 WNW 8 13 30.47 1032 10 16 0.00 0.00
9:15 pm 21:15 Clear 24 -4.3 11 -11.5 58 58 WNW 7 11 30.49 1033 10 16 0.00 0.00
9:35 pm 21:35 Clear 23 -4.9 12 -11.3 61 61 WNW 8 13 30.51 1033 10 16 0.00 0.00
9:55 pm 21:55 Clear 21 -6.1 12 -11.2 68 68 WNW 7 11 30.52 1034 10 16 0.00 0.00
10:15 pm 22:15 Clear 23 -5.1 11 -11.4 62 62 WNW 10 17 30.52 1034 10 16 0.00 0.00
10:35 pm 22:35 Clear 24 -4.4 12 -11.1 60 60 WNW 9 15 30.51 1033 10 16 0.00 0.00
10:55 pm 22:55 Clear 22 -5.6 11 -11.7 63 63 NW 5 7 30.53 1034 10 16 0.00 0.00
11:15 pm 23:15 Clear 19 -7.4 10 -12.1 69 69 NW 8 13 30.54 1034 10 16 0.00 0.00
11:35 pm 23:35 Clear 17 -8.3 10 -12.3 73 73 WNW 7 11 30.56 1035 10 16 0.00 0.00
11:55 pm 23:55 Clear 18 -8 10 -12.4 71 71 WNW 9 15 30.56 1035 10 16 0.00 0.00

Powered by AerisWeather